Regional Weather Roundup
Issued by NWS

Home | Current Version | Previous Version | Graphics & Text | Print | Product List | Glossary On
Versions: 1 2 3 4 5 6 7 8 9 10 11 12 13 14 15 16 17 18 19 20 21 22 23 24 25 26 27 28 29 30 31 32 33 34 35 36 37 38 39 40 41 42 43 44 45 46 47 48 49 50
000
ASUS43 KOAX 301902
RWRNE

WEATHER ROUNDUP FOR NEBRASKA
NATIONAL WEATHER SERVICE OMAHA NE
200 PM CDT FRI SEP 30 2016

NOTES: SATELLITE DATA IS BEING USED TO AUGMENT CLOUD COVER ABOVE
       12000 FEET.
       "FAIR" INDICATES FEW OR NO CLOUDS BELOW 12,000 FEET WITH NO
       SIGNIFICANT WEATHER AND/OR OBSTRUCTIONS TO VISIBILITY.

  * THESE STATIONS DO NOT REPORT WEATHER SUCH AS RAIN...SNOW OR FOG.

NEZ001>004-019>022-054>056-302000-
NEBRASKA PANHANDLE

CITY           SKY/WX    TMP DP  RH WIND       PRES   REMARKS
SCOTTSBLUFF    LGT RAIN  63  46  54 CALM      30.17F
ALLIANCE       MOSUNNY   63  44  50 S12       30.16F
CHADRON        CLOUDY    76  48  37 SW13      30.09F
KIMBALL        CLOUDY    73  48  42 NW14      30.20F
SIDNEY         CLOUDY    64  44  48 SE8       30.20F
$$

NEZ057>060-069>072-079>082-302000-
SOUTHWEST NEBRASKA

CITY           SKY/WX    TMP DP  RH WIND       PRES   REMARKS
NORTH PLATTE   PTSUNNY   71  47  42 SE9       30.19F
IMPERIAL       MOSUNNY   71  45  39 SE18      30.18F
LEXINGTON      MOSUNNY   70  44  39 S12       30.22F
MCCOOK         MOSUNNY   70  47  43 SE13      30.20F
OGALLALA       PTSUNNY   71  46  40 S12G20    30.18F
$$

NEZ005>010-023>029-035>040-094-302000-
NORTH CENTRAL NEBRASKA

CITY           SKY/WX    TMP DP  RH WIND       PRES   REMARKS
VALENTINE      PTSUNNY   71  45  39 S20       30.17F
AINSWORTH      MOSUNNY   69  48  46 S14       30.19F
BROKEN BOW     CLOUDY    66  46  48 SE12      30.22F
O`NEILL        CLOUDY    70  43  38 SE12      30.23F
ORD            MOSUNNY   66  44  45 SE10      30.22F
THEDFORD       CLOUDY    67  47  49 S12G21    30.20F
$$

NEZ041-046>049-061>064-073>077-083>087-302000-
SOUTH CENTRAL NEBRASKA

CITY           SKY/WX    TMP DP  RH WIND       PRES   REMARKS
GRAND ISLAND   MOSUNNY   69  43  38 SE12      30.23F
AURORA         SUNNY     69  44  39 S6        30.23F
HASTINGS       CLOUDY    68  44  42 S6        30.24F
HEBRON         MOSUNNY   70  45  40 E5        30.21F
HOLDREGE       MOSUNNY   67  44  43 SE8       30.22F
KEARNEY *      MOSUNNY   70  45  40 SE9G16    30.21F
YORK           SUNNY     72  45  37 SE8       30.23F
$$

NEZ011>018-030>034-042>045-302000-
NORTHEAST NEBRASKA

CITY           SKY/WX    TMP DP  RH WIND       PRES   REMARKS
NORFOLK        SUNNY     72  45  37 SE10      30.22F
ALBION         SUNNY     71  40  33 SE8       30.23F
BLAIR          HAZE      71  47  42 NE7       30.22F VSB 1/2
FREMONT        SUNNY     71  44  37 E10       30.23F
TEKAMAH        SUNNY     72  46  39 VRB7      30.22F
WAYNE          SUNNY     71  49  45 E7        30.24F
$$

NEZ050>053-065>068-078-088>093-302000-
SOUTHEAST NEBRASKA

CITY           SKY/WX    TMP DP  RH WIND       PRES   REMARKS
LINCOLN        SUNNY     74  48  39 NE10      30.23F
OMAHA EPPLEY   MOSUNNY   74  47  38 E9        30.21F
BEATRICE       SUNNY     73  48  41 E7        30.22F HAZE
FALLS CITY     SUNNY     72  49  44 NE9G20    30.19F
NEBRASKA CITY  SUNNY     72  40  30 NE12G17   30.21F
PLATTSMOUTH    SUNNY     73  40  31 NE5       30.21F
$$

NEZ044-045-051>053-067-302000-
OMAHA AREA

CITY           SKY/WX    TMP DP  RH WIND       PRES   REMARKS
OMAHA EPPLEY   MOSUNNY   74  47  38 E9        30.21F
BLAIR          HAZE      71  47  42 NE7       30.22F VSB 1/2
FREMONT        SUNNY     71  44  37 E10       30.23F
MILLARD        SUNNY     71  50  47 NW3       30.21F
OFFUTT AFB     SUNNY     73  50  44 N9G17     30.20F
PLATTSMOUTH    SUNNY     73  40  31 NE5       30.21F
WAHOO          FAIR      73  42  33 E8        30.23F
$$




USA.gov is the U.S. government's official web portal to all federal, state and local government web resources and services.